• In Uzbekistan
  • List of Countries
  • For 7 days
  • Water Temperature
  • Satellite Maps
  • Weather Map
  • Weather Widgets
  • user-avatar
    Login

    Hourly Weather Lubango

    Today, 30 April, Sunday

    Time Temperature Precipitation Wind Pressure Humidity
    00:00 +13°C° 0 mm 1 mps 609 mmHg 68%
    01:00 +13°C° 0 mm 1 mps 609 mmHg 68%
    02:00 +13°C° 0 mm 1 mps 609 mmHg 68%
    03:00 +13°C° 0 mm 1 mps 609 mmHg 68%
    04:00 +13°C° 0 mm 2 mps 609 mmHg 69%
    05:00 +13°C° 0 mm 2 mps 609 mmHg 69%
    06:00 +13°C° 0 mm 2 mps 609 mmHg 69%
    07:00 +14°C° 0 mm 2 mps 610 mmHg 69%
    08:00 +17°C° 0 mm 2 mps 611 mmHg 60%
    09:00 +19°C° 0 mm 3 mps 612 mmHg 51%
    10:00 +22°C° 0 mm 3 mps 613 mmHg 42%
    11:00 +25°C° 0 mm 3 mps 613 mmHg 38%
    12:00 +26°C° 0 mm 3 mps 613 mmHg 35%
    13:00 +27°C° 0 mm 2 mps 613 mmHg 31%
    14:00 +27°C° 0 mm 2 mps 612 mmHg 32%
    15:00 +27°C° 0 mm 2 mps 612 mmHg 32%
    16:00 +27°C° 0 mm 2 mps 611 mmHg 32%
    17:00 +24°C° 0 mm 2 mps 610 mmHg 38%
    18:00 +20°C° 0 mm 2 mps 610 mmHg 44%
    19:00 +17°C° 0 mm 2 mps 609 mmHg 50%
    20:00 +16°C° 0 mm 2 mps 609 mmHg 52%
    21:00 +15°C° 0 mm 2 mps 609 mmHg 54%
    22:00 +14°C° 0 mm 2 mps 609 mmHg 57%
    23:00 +14°C° 0 mm 2 mps 609 mmHg 56%

    Tomorrow, 1 May, Monday

    Time Temperature Precipitation Wind Pressure Humidity
    00:00 +14°C° 0 mm 2 mps 609 mmHg 55%
    01:00 +13°C° 0 mm 2 mps 608 mmHg 54%
    02:00 +13°C° 0 mm 2 mps 608 mmHg 55%
    03:00 +13°C° 0 mm 2 mps 608 mmHg 56%
    04:00 +12°C° 0 mm 2 mps 608 mmHg 57%
    05:00 +12°C° 0 mm 2 mps 608 mmHg 58%
    06:00 +13°C° 0 mm 2 mps 608 mmHg 59%
    07:00 +13°C° 0 mm 2 mps 609 mmHg 60%
    08:00 +16°C° 0 mm 2 mps 610 mmHg 52%
    09:00 +19°C° 0 mm 3 mps 611 mmHg 44%
    10:00 +22°C° 0 mm 3 mps 613 mmHg 36%
    11:00 +24°C° 0 mm 3 mps 613 mmHg 33%
    12:00 +26°C° 0 mm 3 mps 613 mmHg 29%
    13:00 +27°C° 0 mm 2 mps 612 mmHg 26%
    14:00 +27°C° 0 mm 2 mps 612 mmHg 27%
    15:00 +26°C° 0 mm 2 mps 611 mmHg 27%
    16:00 +26°C° 0 mm 1 mps 611 mmHg 28%
    17:00 +23°C° 0 mm 1 mps 610 mmHg 34%
    18:00 +18°C° 0 mm 2 mps 609 mmHg 41%
    19:00 +15°C° 0 mm 2 mps 608 mmHg 47%
    20:00 +14°C° 0 mm 2 mps 608 mmHg 49%
    21:00 +14°C° 0 mm 2 mps 608 mmHg 51%
    22:00 +13°C° 0 mm 2 mps 608 mmHg 52%
    23:00 +13°C° 0 mm 2 mps 608 mmHg 52%

    Day after tomorrow, 2 May, Tuesday

    Time Temperature Precipitation Wind Pressure Humidity
    00:00 +13°C° 0 mm 2 mps 608 mmHg 52%
    01:00 +12°C° 0 mm 2 mps 608 mmHg 51%
    02:00 +12°C° 0 mm 2 mps 608 mmHg 53%
    03:00 +12°C° 0 mm 2 mps 607 mmHg 54%
    04:00 +12°C° 0 mm 2 mps 607 mmHg 55%
    05:00 +12°C° 0 mm 2 mps 607 mmHg 56%
    06:00 +12°C° 0 mm 2 mps 608 mmHg 57%
    07:00 +12°C° 0 mm 2 mps 608 mmHg 58%
    08:00 +14°C° 0 mm 3 mps 610 mmHg 51%
    09:00 +18°C° 0 mm 3 mps 611 mmHg 44%
    10:00 +21°C° 0 mm 4 mps 612 mmHg 37%
    11:00 +24°C° 0 mm 3 mps 612 mmHg 34%
    12:00 +25°C° 0 mm 3 mps 612 mmHg 30%
    13:00 +26°C° 0 mm 2 mps 612 mmHg 27%
    14:00 +26°C° 0 mm 2 mps 611 mmHg 27%
    15:00 +26°C° 0 mm 1 mps 611 mmHg 28%
    16:00 +26°C° 0 mm 1 mps 610 mmHg 28%
    17:00 +22°C° 0 mm 1 mps 609 mmHg 37%
    18:00 +18°C° 0 mm 1 mps 608 mmHg 47%
    19:00 +13°C° 0 mm 1 mps 607 mmHg 56%
    20:00 +13°C° 0 mm 1 mps 607 mmHg 56%
    21:00 +13°C° 0 mm 1 mps 607 mmHg 56%
    22:00 +12°C° 0 mm 1 mps 608 mmHg 55%
    23:00 +12°C° 0 mm 1 mps 608 mmHg 55%

    3 May, Wednesday

    Time Temperature Precipitation Wind Pressure Humidity
    00:00 +12°C° 0 mm 1 mps 607 mmHg 56%
    01:00 +10°C° 0 mm 2 mps 607 mmHg 56%
    02:00 +10°C° 0 mm 2 mps 607 mmHg 56%
    03:00 +10°C° 0 mm 2 mps 607 mmHg 57%
    04:00 +10°C° 0 mm 2 mps 607 mmHg 57%
    05:00 +10°C° 0 mm 2 mps 607 mmHg 58%
    06:00 +12°C° 0 mm 2 mps 608 mmHg 58%
    07:00 +12°C° 0 mm 2 mps 608 mmHg 59%
    08:00 +14°C° 0 mm 3 mps 610 mmHg 52%
    09:00 +18°C° 0 mm 3 mps 611 mmHg 44%
    10:00 +21°C° 0 mm 3 mps 612 mmHg 37%
    11:00 +24°C° 0 mm 3 mps 612 mmHg 34%
    12:00 +26°C° 0 mm 2 mps 612 mmHg 30%
    13:00 +27°C° 0 mm 2 mps 612 mmHg 27%
    14:00 +27°C° 0 mm 1 mps 611 mmHg 28%
    15:00 +26°C° 0 mm 1 mps 611 mmHg 30%
    16:00 +24°C° 0 mm 0 mps 610 mmHg 31%
    17:00 +20°C° 0 mm 0 mps 609 mmHg 43%
    18:00 +16°C° 0 mm 0 mps 608 mmHg 56%
    19:00 +13°C° 0 mm 0 mps 607 mmHg 68%
    20:00 +12°C° 0 mm 0 mps 607 mmHg 68%
    21:00 +11°C° 0 mm 0 mps 607 mmHg 67%
    22:00 +12°C° 0 mm 1 mps 607 mmHg 67%
    23:00 +11°C° 0 mm 1 mps 607 mmHg 67%

    4 May, Thursday

    Time Temperature Precipitation Wind Pressure Humidity
    00:00 +11°C° 0 mm 1 mps 607 mmHg 66%
    01:00 +11°C° 0 mm 1 mps 607 mmHg 66%
    02:00 +11°C° 0 mm 1 mps 607 mmHg 65%
    03:00 +11°C° 0 mm 1 mps 606 mmHg 63%
    04:00 +11°C° 0 mm 1 mps 606 mmHg 62%
    05:00 +10°C° 0 mm 2 mps 607 mmHg 61%
    06:00 +12°C° 0 mm 2 mps 608 mmHg 60%
    07:00 +12°C° 0 mm 2 mps 608 mmHg 58%
    08:00 +16°C° 0 mm 2 mps 610 mmHg 51%
    09:00 +19°C° 0 mm 3 mps 611 mmHg 43%
    10:00 +22°C° 0 mm 3 mps 612 mmHg 36%
    11:00 +25°C° 0 mm 2 mps 612 mmHg 33%
    12:00 +26°C° 0 mm 2 mps 612 mmHg 30%
    13:00 +28°C° 0 mm 1 mps 612 mmHg 27%
    14:00 +27°C° 0 mm 1 mps 611 mmHg 28%
    15:00 +27°C° 0 mm 1 mps 611 mmHg 30%
    16:00 +24°C° 0 mm 0 mps 610 mmHg 32%
    17:00 +21°C° 0 mm 0 mps 609 mmHg 43%
    18:00 +19°C° 0 mm 1 mps 608 mmHg 54%
    19:00 +14°C° 0 mm 1 mps 607 mmHg 65%
    20:00 +14°C° 0 mm 1 mps 607 mmHg 65%
    21:00 +13°C° 0 mm 1 mps 607 mmHg 65%
    22:00 +12°C° 0 mm 1 mps 607 mmHg 65%
    23:00 +12°C° 0 mm 1 mps 607 mmHg 63%

    5 May, Friday

    Time Temperature Precipitation Wind Pressure Humidity
    00:00 +12°C° 0 mm 1 mps 607 mmHg 62%
    01:00 +12°C° 0 mm 1 mps 607 mmHg 60%
    02:00 +12°C° 0 mm 2 mps 607 mmHg 59%
    03:00 +12°C° 0 mm 2 mps 607 mmHg 59%
    04:00 +12°C° 0 mm 2 mps 607 mmHg 58%
    05:00 +12°C° 0 mm 2 mps 607 mmHg 58%
    06:00 +12°C° 0 mm 2 mps 608 mmHg 59%
    07:00 +13°C° 0 mm 2 mps 608 mmHg 59%
    08:00 +16°C° 0 mm 3 mps 609 mmHg 52%
    09:00 +19°C° 0 mm 3 mps 611 mmHg 44%
    10:00 +22°C° 0 mm 3 mps 612 mmHg 37%
    11:00 +24°C° 0 mm 3 mps 612 mmHg 34%
    12:00 +26°C° 0 mm 3 mps 611 mmHg 31%
    13:00 +27°C° 0 mm 3 mps 611 mmHg 28%
    14:00 +27°C° 0 mm 2 mps 611 mmHg 28%
    15:00 +27°C° 0 mm 2 mps 611 mmHg 29%
    16:00 +27°C° 0 mm 1 mps 610 mmHg 30%
    17:00 +23°C° 0 mm 1 mps 609 mmHg 39%
    18:00 +19°C° 0 mm 1 mps 608 mmHg 48%
    19:00 +14°C° 0 mm 1 mps 607 mmHg 57%
    20:00 +14°C° 0 mm 1 mps 607 mmHg 57%
    21:00 +14°C° 0 mm 1 mps 607 mmHg 56%
    22:00 +14°C° 0 mm 1 mps 608 mmHg 56%
    23:00 +13°C° 0 mm 1 mps 607 mmHg 57%
    Show more